[[{"header":{"parameterUnit":"m.s-1","parameterCategory":1,"la1":30.2991,"la2":30.254,"lo1":-89.0895,"lo2":-89.0444,"dy":0.0017,"dx":0.0017,"nx":28,"ny":28,"refTime":"2026-01-04T09:00:00:Z","depth":0,"parameterNumber":2,"parameterNumberName":"U-component_of_WINDS"},"data":[0,0,0,0,0,0,0,0,0,0,0,0,0,0,0,0,0,0,0,0,0,0,0,0,0,0,0,0,0,0,0,0,0,0,0,0,0,0,0,0,0,0,0,0,0,0,0,0,0,0,0,0,0,0,0,0,0,0,-2.573,-2.5729,0,-2.5655,-2.5654,-2.5653,-2.555,-2.5549,-2.5547,-2.5545,-2.5472,-2.5471,-2.5471,0,0,0,0,0,0,0,0,0,0,0,0,0,-2.5788,-2.5788,-2.573,-2.5729,-2.5728,-2.5655,-2.5654,-2.5653,-2.5551,-2.5549,-2.5546,-2.5544,-2.5472,-2.5471,-2.5471,0,0,0,0,0,0,0,0,0,0,0,0,0,-2.5743,-2.5788,-2.573,-2.5668,-2.5662,-2.5655,-2.5654,-2.5653,-2.5551,-2.5548,-2.5546,-2.5543,-2.5472,-2.5471,-2.5471,-2.552,0,0,-2.5469,-2.5469,0,0,0,0,0,0,0,0,-2.5746,-2.5741,-2.5678,-2.5672,-2.5665,-2.5609,-2.5647,-2.5608,-2.5552,-2.5593,-2.5545,-2.5542,-2.552,-2.5515,-2.5507,-2.5516,-2.5513,-2.5469,-2.5469,-2.5469,-2.5469,0,0,0,0,0,0,0,-2.5749,-2.5744,-2.57,-2.5677,-2.567,-2.5645,-2.5636,-2.5639,-2.5572,-2.5589,-2.5582,-2.5574,-2.5516,-2.5508,-2.5504,-2.5512,-2.5469,-2.5469,-2.5469,-2.5468,-2.5559,-2.5562,0,0,0,0,0,0,-2.5761,-2.5747,-2.5703,-2.5698,-2.57,-2.5646,-2.5636,-2.563,-2.5572,-2.556,-2.5576,-2.557,-2.551,-2.5505,-2.5501,-2.5555,-2.5469,-2.5468,-2.5468,-2.5557,-2.556,-2.5563,0,0,0,0,0,0,-2.5763,-2.5758,-2.5706,-2.572,-2.5712,-2.5648,-2.5642,-2.563,-2.5621,-2.5562,-2.555,-2.558,-2.5508,-2.5502,-2.5516,-2.5552,-2.5468,-2.5468,-2.5553,-2.5558,-2.5561,-2.5664,0,0,0,0,0,0,-2.5765,-2.5759,-2.5776,-2.5721,-2.5711,-2.5721,-2.5644,-2.563,-2.562,-2.5611,-2.5562,-2.5552,-2.5505,-2.5517,-2.5516,-2.5549,-2.5467,-2.555,-2.5555,-2.556,-2.5657,-2.5671,-2.5683,0,0,0,0,0,-2.5767,-2.5809,-2.5778,-2.5773,-2.5731,-2.5723,-2.5717,-2.5662,-2.5624,-2.5641,-2.5603,-2.5553,-2.5548,-2.552,-2.5517,-2.5551,-2.5547,-2.5554,-2.556,-2.5651,-2.5668,-2.5683,0,0,0,0,0,0,-2.587,-2.58,-2.5765,-2.579,-2.5763,-2.5706,-2.5725,-2.5681,-2.5666,-2.5657,-2.559,-2.558,-2.5603,-2.5578,-2.5548,-2.5596,-2.554,-2.5546,-2.5611,-2.5627,-2.5639,-2.5645,-2.5467,0,0,0,0,0,-2.5895,-2.5893,-2.5833,-2.5861,-2.5849,-2.579,-2.5784,-2.5744,-2.5714,-2.5702,-2.5665,-2.5639,-2.5631,-2.5627,-2.5617,-2.5653,-2.5642,-2.5675,-2.5688,-2.5699,-2.5705,-2.5724,-2.5738,-2.5583,-2.5583,-2.5583,0,0,-2.5948,-2.591,-2.5913,-2.588,-2.5855,-2.5856,-2.5781,-2.5785,-2.5785,-2.5703,-2.5714,-2.5686,-2.5652,-2.5678,-2.5687,-2.5658,-2.5746,-2.5707,-2.5716,-2.5716,-2.5732,-2.5747,-2.576,-2.5587,-2.5586,-2.5586,0,0,-2.6045,-2.6015,-2.6035,-2.6011,-2.5973,-2.5934,-2.5939,-2.5888,-2.5866,-2.5876,-2.5815,-2.5815,-2.5802,-2.5781,-2.5769,-2.5859,-2.5813,-2.5857,-2.5925,-2.5944,-2.5956,-2.5967,-2.6,-2.6013,-2.5863,-2.5864,-2.5864,0,-2.6115,-2.6113,-2.6051,-2.6059,-2.6047,-2.5972,-2.5993,-2.5973,-2.5934,-2.5929,-2.5896,-2.588,-2.5852,-2.5872,-2.5894,-2.5886,-2.5891,-2.5863,-2.5959,-2.5969,-2.5978,-2.6009,-2.6022,-2.5869,-2.5869,-2.5868,-2.5868,0,-2.6202,-2.6201,-2.6222,-2.6186,-2.6177,-2.6191,-2.6133,-2.6131,-2.6092,-2.6057,-2.6068,-2.6032,-2.6013,-2.6015,-2.5977,-2.6031,-2.6014,-2.5971,-2.5914,-2.6,-2.6028,-2.6039,-2.5878,-2.5876,-2.5874,-2.5872,0,0,-2.6361,-2.6291,-2.63,-2.6283,-2.6236,-2.6235,-2.6246,-2.6227,-2.6228,-2.6204,-2.6213,-2.6205,-2.6165,-2.6151,-2.611,-2.6127,-2.6202,-2.6082,-2.6081,-2.6107,-2.626,-2.6293,-2.6307,-2.6171,-2.6173,-2.6175,-2.6263,0,-2.6449,-2.6464,-2.6409,-2.6439,-2.6438,-2.6368,-2.6378,-2.6351,-2.6319,-2.6314,-2.6278,-2.6274,-2.6222,-2.6214,-2.6227,-2.619,-2.6232,-2.6183,-2.618,-2.6181,-2.6192,-2.6322,-2.6356,-2.6441,-2.6274,-2.6275,-2.6277,0,-2.6553,-2.6535,-2.6564,-2.6516,-2.6514,-2.6524,-2.6503,-2.6499,-2.6468,-2.6443,-2.6428,-2.6381,-2.639,-2.6336,-2.6348,-2.6316,-2.6312,-2.6294,-2.6296,-2.6294,-2.6235,-2.6324,-2.6467,-2.648,-2.6293,-2.6292,-2.6291,0,-2.6668,-2.665,-2.6665,-2.6652,-2.6597,-2.6606,-2.6584,-2.6549,-2.6542,-2.6524,-2.6519,-2.6502,-2.6494,-2.6483,-2.6433,-2.6398,-2.6453,-2.6393,-2.6434,-2.6435,-2.6449,-2.6449,-2.6594,-2.6445,-2.6445,-2.6445,-2.6445,0,-2.6772,-2.6793,-2.6716,-2.6725,-2.6747,-2.6685,-2.6709,-2.6679,-2.665,-2.6654,-2.6592,-2.6597,-2.653,-2.6528,-2.6489,-2.6507,-2.6503,-2.6484,-2.6474,-2.649,-2.6493,-2.6487,-2.648,-2.6448,-2.6447,-2.6447,-2.6446,0,-2.6904,-2.6852,-2.6864,-2.6811,-2.6798,-2.6817,-2.6771,-2.6779,-2.6743,-2.6748,-2.6746,-2.669,-2.6684,-2.6633,-2.6617,-2.659,-2.6623,-2.6601,-2.6634,-2.6627,-2.6671,-2.6668,-2.6817,-2.6834,-2.6675,-2.6677,-2.6678,0,-2.6974,-2.6988,-2.6936,-2.6934,-2.6914,-2.6911,-2.6903,-2.6843,-2.6837,-2.6804,-2.6816,-2.6805,-2.6793,-2.6788,-2.6747,-2.6734,-2.6712,-2.6765,-2.671,-2.6726,-2.6714,-2.6714,-2.6716,-2.6778,-2.678,-2.6781,-2.6783,0,-2.7105,-2.7079,-2.7069,-2.7051,-2.7043,-2.7026,-2.7005,-2.7007,-2.6941,-2.6938,-2.6931,-2.6922,-2.6905,-2.6896,-2.6877,-2.6855,-2.6809,-2.68,-2.6809,-2.6826,-2.6845,-2.6837,-2.6667,-2.6797,-2.6796,-2.6795,-2.6794,-2.6793,-2.7208,-2.7218,-2.7183,-2.7174,-2.7153,-2.7135,-2.7139,-2.7104,-2.7097,-2.7078,-2.7043,-2.7042,-2.7012,-2.698,-2.6962,-2.6962,-2.6934,-2.6947,-2.695,-2.6954,-2.6963,-2.6845,-2.6958,-2.6957,-2.6957,-2.6956,-2.6956,0,-2.7336,-2.731,-2.7303,-2.7276,-2.727,-2.7225,-2.7201,-2.7199,-2.7198,-2.7173,-2.7163,-2.7156,-2.7147,-2.7105,-2.7092,-2.71,-2.7078,-2.7099,-2.7098,-2.7094,-2.6988,-2.6982,-2.7116,-2.7116,-2.7116,-2.7116,-2.7116,-2.7116,-2.7402,-2.7417,-2.7387,-2.7391,-2.7365,-2.7363,-2.7353,-2.7336,-2.7316,-2.7311,-2.7303,-2.7275,-2.7244,-2.7228,-2.7219,-2.7206,-2.7205,-2.7233,-2.7214,-2.7116,-2.7101,-2.7086,-2.708,-2.7233,-2.7233,-2.7319,-2.732,-2.7321]},{"header":{"parameterUnit":"m.s-1","parameterCategory":1,"la1":30.2991,"la2":30.254,"lo1":-89.0895,"lo2":-89.0444,"dy":0.0017,"dx":0.0017,"nx":28,"ny":28,"refTime":"2026-01-04T09:00:00:Z","depth":0,"parameterNumber":3,"parameterNumberName":"V-component_of_WINDS"},"data":[0,0,0,0,0,0,0,0,0,0,0,0,0,0,0,0,0,0,0,0,0,0,0,0,0,0,0,0,0,0,0,0,0,0,0,0,0,0,0,0,0,0,0,0,0,0,0,0,0,0,0,0,0,0,0,0,0,0,-3.2224,-3.2225,0,-3.2286,-3.2286,-3.2287,-3.2267,-3.2265,-3.2264,-3.2263,-3.2322,-3.2324,-3.2327,0,0,0,0,0,0,0,0,0,0,0,0,0,-3.2083,-3.2086,-3.2224,-3.2225,-3.2225,-3.2286,-3.2286,-3.2287,-3.2267,-3.2265,-3.2264,-3.2262,-3.2321,-3.2324,-3.2327,0,0,0,0,0,0,0,0,0,0,0,0,0,-3.2144,-3.2086,-3.2224,-3.2223,-3.2223,-3.2286,-3.2287,-3.2288,-3.2267,-3.2265,-3.2263,-3.2261,-3.232,-3.2324,-3.2328,-3.2394,0,0,-3.2341,-3.2343,0,0,0,0,0,0,0,0,-3.2141,-3.2149,-3.2222,-3.2223,-3.2223,-3.2267,-3.2258,-3.2323,-3.2268,-3.225,-3.2263,-3.226,-3.2305,-3.231,-3.2326,-3.2396,-3.2399,-3.2341,-3.2344,-3.2345,-3.2347,0,0,0,0,0,0,0,-3.2137,-3.2147,-3.2248,-3.2223,-3.2224,-3.2217,-3.2224,-3.227,-3.2288,-3.2252,-3.225,-3.2258,-3.2305,-3.2322,-3.2327,-3.24,-3.2341,-3.2345,-3.2347,-3.2349,-3.2527,-3.2529,0,0,0,0,0,0,-3.2133,-3.2143,-3.2246,-3.225,-3.2177,-3.2221,-3.2229,-3.2255,-3.2287,-3.229,-3.226,-3.2257,-3.2316,-3.2322,-3.2329,-3.2409,-3.2345,-3.2349,-3.2352,-3.2525,-3.2528,-3.253,0,0,0,0,0,0,-3.213,-3.2142,-3.2244,-3.2196,-3.2209,-3.2226,-3.2255,-3.2257,-3.2274,-3.2293,-3.2296,-3.2275,-3.2314,-3.2323,-3.2378,-3.241,-3.2351,-3.2355,-3.2522,-3.2526,-3.2529,-3.2568,0,0,0,0,0,0,-3.2126,-3.2141,-3.2168,-3.2197,-3.2211,-3.2293,-3.2257,-3.226,-3.2282,-3.2279,-3.2308,-3.2311,-3.2313,-3.2372,-3.2382,-3.2415,-3.2358,-3.252,-3.2524,-3.2528,-3.2564,-3.2573,-3.258,0,0,0,0,0,-3.2121,-3.2175,-3.2169,-3.2182,-3.2245,-3.2295,-3.2303,-3.2307,-3.2285,-3.2311,-3.2323,-3.231,-3.2405,-3.2378,-3.2389,-3.2424,-3.2518,-3.2523,-3.2527,-3.2561,-3.2571,-3.258,0,0,0,0,0,0,-3.2147,-3.2179,-3.2173,-3.2239,-3.2265,-3.2292,-3.2325,-3.2317,-3.2349,-3.2344,-3.2345,-3.2352,-3.2409,-3.2421,-3.239,-3.2489,-3.2458,-3.2465,-3.2479,-3.2489,-3.2497,-3.2493,-3.2362,0,0,0,0,0,-3.2161,-3.2201,-3.2226,-3.2281,-3.2295,-3.2308,-3.233,-3.233,-3.2356,-3.2367,-3.2383,-3.2408,-3.2443,-3.2466,-3.25,-3.2565,-3.2571,-3.2595,-3.2602,-3.2609,-3.2616,-3.2651,-3.2662,-3.2546,-3.2546,-3.2546,0,0,-3.219,-3.2212,-3.2237,-3.2287,-3.2308,-3.2347,-3.2317,-3.236,-3.239,-3.2373,-3.2427,-3.2439,-3.2466,-3.2527,-3.2555,-3.2539,-3.2648,-3.2615,-3.262,-3.2623,-3.2657,-3.2668,-3.2678,-3.255,-3.2549,-3.2549,0,0,-3.2263,-3.2283,-3.2333,-3.2354,-3.2385,-3.2393,-3.2405,-3.2433,-3.2441,-3.2495,-3.2484,-3.2517,-3.2578,-3.2598,-3.2617,-3.2696,-3.2685,-3.2707,-3.2748,-3.2782,-3.2791,-3.28,-3.2828,-3.2839,-3.2713,-3.2713,-3.2713,0,-3.2294,-3.2355,-3.2358,-3.2403,-3.2425,-3.2413,-3.2462,-3.2481,-3.2522,-3.2537,-3.2519,-3.2596,-3.2613,-3.2678,-3.2698,-3.2713,-3.2726,-3.2704,-3.279,-3.2798,-3.2806,-3.2833,-3.2844,-3.2716,-3.2715,-3.2715,-3.2715,0,-3.2392,-3.2435,-3.247,-3.2511,-3.2537,-3.2584,-3.2592,-3.2618,-3.2615,-3.2625,-3.2679,-3.27,-3.2737,-3.2752,-3.275,-3.2817,-3.2807,-3.279,-3.2759,-3.2819,-3.2845,-3.2856,-3.2719,-3.2718,-3.2718,-3.2717,0,0,-3.2485,-3.2527,-3.254,-3.2559,-3.2592,-3.2624,-3.2669,-3.2707,-3.273,-3.2757,-3.2794,-3.2846,-3.283,-3.2851,-3.285,-3.288,-3.2943,-3.2859,-3.286,-3.2875,-3.3018,-3.3032,-3.3044,-3.2935,-3.2937,-3.2938,-3.3016,0,-3.2561,-3.2643,-3.2647,-3.2721,-3.276,-3.2748,-3.2787,-3.2811,-3.282,-3.2853,-3.2862,-3.29,-3.2876,-3.2889,-3.2918,-3.2929,-3.2972,-3.2923,-3.2969,-3.2971,-3.2965,-3.3058,-3.3073,-3.3145,-3.3026,-3.3028,-3.3029,0,-3.2662,-3.2695,-3.2773,-3.2801,-3.2817,-3.2853,-3.2888,-3.292,-3.2946,-3.2951,-3.2974,-3.2968,-3.3013,-3.2979,-3.304,-3.3007,-3.3026,-3.3034,-3.3037,-3.3042,-3.3005,-3.3067,-3.3169,-3.318,-3.3045,-3.3044,-3.3043,0,-3.2723,-3.2786,-3.2841,-3.2857,-3.2891,-3.2916,-3.2931,-3.2955,-3.2978,-3.3008,-3.3022,-3.3056,-3.3075,-3.3101,-3.3104,-3.3079,-3.3165,-3.3132,-3.317,-3.317,-3.319,-3.3189,-3.3297,-3.32,-3.32,-3.3199,-3.3199,0,-3.2809,-3.2857,-3.2869,-3.2904,-3.2957,-3.2959,-3.3012,-3.3024,-3.3046,-3.3081,-3.3071,-3.3104,-3.3106,-3.3139,-3.3141,-3.3192,-3.32,-3.3204,-3.3205,-3.3206,-3.3206,-3.3219,-3.3215,-3.3202,-3.3202,-3.3201,-3.3201,0,-3.2887,-3.2897,-3.2957,-3.2984,-3.2991,-3.303,-3.3052,-3.3084,-3.3092,-3.3136,-3.3147,-3.3159,-3.3198,-3.3203,-3.3247,-3.3249,-3.331,-3.3304,-3.3302,-3.3302,-3.334,-3.3337,-3.3462,-3.3478,-3.3369,-3.337,-3.3371,0,-3.2942,-3.2979,-3.3011,-3.3035,-3.3051,-3.3089,-3.3113,-3.3116,-3.314,-3.3172,-3.32,-3.3238,-3.3268,-3.333,-3.3342,-3.3376,-3.3371,-3.3413,-3.3376,-3.3377,-3.3373,-3.3372,-3.3375,-3.342,-3.3421,-3.3422,-3.3423,0,-3.3039,-3.3042,-3.3077,-3.3114,-3.3143,-3.3172,-3.3199,-3.3218,-3.3224,-3.3252,-3.3292,-3.3316,-3.3362,-3.3399,-3.3432,-3.3445,-3.3436,-3.3434,-3.3445,-3.3448,-3.3446,-3.3448,-3.3322,-3.3432,-3.3431,-3.343,-3.343,-3.343,-3.3108,-3.3141,-3.3168,-3.3207,-3.3228,-3.3254,-3.3285,-3.3298,-3.3332,-3.3371,-3.3369,-3.3414,-3.3437,-3.3481,-3.3497,-3.353,-3.3516,-3.3532,-3.3536,-3.354,-3.3544,-3.3439,-3.3536,-3.3536,-3.3535,-3.3535,-3.3535,0,-3.3205,-3.3222,-3.3258,-3.3297,-3.3328,-3.3317,-3.3346,-3.3372,-3.3411,-3.3435,-3.3466,-3.3511,-3.3547,-3.3562,-3.3597,-3.3621,-3.3617,-3.363,-3.3629,-3.3632,-3.3554,-3.3542,-3.3632,-3.3632,-3.3632,-3.3632,-3.3632,-3.3632,-3.3259,-3.3315,-3.3321,-3.3385,-3.3401,-3.3446,-3.3464,-3.3487,-3.3506,-3.3558,-3.3589,-3.3598,-3.3618,-3.3654,-3.3686,-3.3689,-3.3703,-3.3718,-3.3719,-3.3647,-3.3637,-3.3628,-3.3617,-3.3721,-3.3721,-3.3794,-3.3795,-3.3796]}]]